Location: Fenile
(46.0500°N, 9.5500°E)
Time: 18:53:47
(UTC+00:00)

SJ-6B - Pass Details

Date: 03 March 2021
Orbit: 509 x 581 km, 97.6° (Epoch: 13 April)

Event Time Altitude Azimuth Distance (km) Brightness Sun altitude
Exits shadow 19:23:03 44° 196° (SSW) 802 3.5 -23.5°
Maximum altitude 19:24:10 65° 258° (WSW) 635 3.2 -23.7°
Drops below altitude 10° 19:28:13 10° 342° (NNW) 1,877 5.9 -24.3°
Sets 19:30:23 0° 345° (NNW) 2,768 6.8 -24.7°
